Stations météo

réclame
Mon MeteoGroup
Ansbach/Katterbach, Allemagne (10755): Température de l'air & dewpoint: 02.07.2020 23:00:00 - 08.07.2020 23:00:00 (CEST)Ansbach/Katterbach, Allemagne (10755): Vitesse du vent & gusts: 02.07.2020 23:00:00 - 08.07.2020 23:00:00 (CEST)Ansbach/Katterbach, Allemagne (10755): Direction du vent: 02.07.2020 23:00:00 - 08.07.2020 23:00:00 (CEST)Ansbach/Katterbach, Allemagne (10755): reduced air pressure: 02.07.2020 23:00:00 - 08.07.2020 23:00:00 (CEST)Ansbach/Katterbach, Allemagne (10755): visibility: 02.07.2020 23:00:00 - 08.07.2020 23:00:00 (CEST)Ansbach/Katterbach, Allemagne (10755): Quantités de précipitations: 02.07.2020 23:00:00 - 08.07.2020 23:00:00 (CEST)
Date & Time tt [°C] td [°C] ff [km/h] ff [knt] fx [km/h] fx [knt] dd ppp [hPa] vv [km] rr [mm]
08.07.2020 23:00:00 14,1 14,1 5 3 - - W 1019,6 10 0,0
08.07.2020 22:00:00 14,3 14,3 0 0 - - N 1019,5 10 0,0
08.07.2020 21:00:00 14,5 14,3 5 3 - - NNE 1019,1 10 -
08.07.2020 20:00:00 15,2 13,7 15 8 - - NNW 1019,3 10 -
08.07.2020 19:00:00 17,1 12,8 15 8 - - N 1018,7 10 -
08.07.2020 18:00:00 17,9 11,7 9 5 - - WNW 1018,1 10 0,0
08.07.2020 17:00:00 17,3 12,6 8 4 - - W 1018,3 10 0,0
08.07.2020 16:00:00 16,9 11,8 11 6 - - WNW 1019,0 10 0,0
08.07.2020 15:00:00 19,4 9,0 15 8 - - NW 1018,3 10 0,0
08.07.2020 14:00:00 20,0 8,6 26 14 - - WNW 1017,8 10 -
08.07.2020 13:00:00 20,2 8,8 22 12 - - W 1018,1 10 -
08.07.2020 12:00:00 20,5 8,5 22 12 - - WSW 1017,6 10 -
08.07.2020 11:00:00 19,6 8,6 21 11 - - W 1017,4 10 -
08.07.2020 10:00:00 18,6 8,3 22 12 - - WSW 1017,4 10 -
08.07.2020 09:00:00 16,4 9,6 9 5 - - WSW 1017,9 10 -
08.07.2020 08:00:00 15,1 9,2 8 4 - - SW 1017,6 10 -
08.07.2020 07:00:00 13,8 8,6 0 0 - - N 1017,6 10 -
08.07.2020 06:00:00 13,1 7,1 11 6 - - SSW 1017,8 10 -
08.07.2020 05:00:00 12,7 7,8 5 3 - - SSW 1018,1 10 -
08.07.2020 04:00:00 12,4 7,5 5 3 - - SSW 1018,1 10 -
08.07.2020 03:00:00 12,0 6,9 5 3 - - S 1018,7 10 -
08.07.2020 02:00:00 12,6 6,6 8 4 - - S 1018,8 10 -
08.07.2020 01:00:00 12,4 7,1 8 4 - - S 1019,3 10 -
08.07.2020 00:00:00 13,2 7,0 8 4 - - S 1019,7 10 -
07.07.2020 23:00:00 15,9 5,2 5 3 - - N 1019,8 10 -
07.07.2020 22:00:00 16,1 5,7 9 5 - - N 1019,8 10 -
07.07.2020 21:00:00 17,6 5,8 8 4 - - NNW 1019,5 10 -
07.07.2020 20:00:00 18,1 5,6 8 4 - - WNW 1019,3 10 -
07.07.2020 19:00:00 19,9 5,5 15 8 - - WSW 1019,7 10 -
07.07.2020 18:00:00 19,3 5,4 9 5 - - WNW 1020,4 10 -
07.07.2020 17:00:00 19,7 5,7 9 5 - - WNW 1020,6 10 -
07.07.2020 16:00:00 19,7 6,8 13 7 - - W 1020,7 10 -
07.07.2020 15:00:00 18,5 6,3 11 6 - - WSW 1021,6 10 -
07.07.2020 14:00:00 18,4 7,2 8 4 - - WNW 1021,9 10 -
07.07.2020 13:00:00 18,1 7,5 9 5 - - WSW 1021,9 10 -
07.07.2020 12:00:00 17,2 7,0 15 8 - - W 1022,3 10 -
07.07.2020 11:00:00 16,7 8,4 16 9 - - W 1022,4 10 -
07.07.2020 10:00:00 15,3 8,5 5 3 - - W 1023,0 10 -
07.07.2020 09:00:00 14,8 8,9 8 4 - - W 1023,1 10 -
07.07.2020 08:00:00 12,4 8,5 5 3 - - SW 1023,3 10 -
07.07.2020 07:00:00 10,4 8,3 5 3 - - SW 1023,3 10 -
07.07.2020 06:00:00 7,6 7,0 5 3 - - SW 1023,5 10 -
07.07.2020 05:00:00 8,4 6,9 0 0 - - N 1023,0 10 -
07.07.2020 04:00:00 9,1 6,9 5 3 - - WSW 1023,0 10 -
07.07.2020 03:00:00 8,8 6,8 8 4 - - W 1023,0 10 -
07.07.2020 02:00:00 9,7 6,8 5 3 - - WNW 1022,4 10 -
07.07.2020 01:00:00 10,1 6,8 9 5 - - W 1022,4 10 -
07.07.2020 00:00:00 11,7 6,4 9 5 - - WNW 1022,4 10 -
06.07.2020 23:00:00 12,6 6,6 9 5 - - NW 1021,5 10 -
06.07.2020 22:00:00 13,4 7,4 8 4 - - WNW 1021,4 10 0,0
06.07.2020 21:00:00 14,9 6,2 15 8 - - WNW 1020,5 10 -
06.07.2020 20:00:00 16,2 4,6 15 8 - - W 1019,5 10 -
06.07.2020 19:00:00 17,9 4,1 22 12 - - W 1018,6 10 -
06.07.2020 18:00:00 17,6 4,2 22 12 - - WNW 1018,2 10 -
06.07.2020 17:00:00 19,5 5,9 26 14 - - NW 1017,2 10 -
06.07.2020 16:00:00 18,5 6,3 29 16 - - W 1016,5 10 -
06.07.2020 15:00:00 18,6 5,8 22 12 - - WNW 1016,1 10 -
06.07.2020 14:00:00 19,1 6,9 22 12 - - WNW 1015,8 10 -
06.07.2020 13:00:00 18,9 6,7 26 14 - - W 1015,6 10 -
06.07.2020 12:00:00 18,3 6,2 29 16 - - WNW 1015,4 10 -
06.07.2020 11:00:00 18,0 7,1 26 14 - - WNW 1015,4 10 -
06.07.2020 10:00:00 17,6 14,3 22 12 - - WNW 1014,5 10 -
06.07.2020 09:00:00 16,1 15,5 22 12 - - WNW 1014,4 10 0,5
06.07.2020 08:00:00 16,7 16,7 18 10 - - WSW 1013,3 10 0,0
06.07.2020 07:00:00 16,1 16,1 15 8 - - WSW 1013,5 10 1,0
06.07.2020 06:00:00 16,7 16,7 21 11 - - WSW 1013,3 10 0,0
06.07.2020 05:00:00 18,5 15,9 15 8 - - NNW 1013,2 10 -
06.07.2020 04:00:00 18,8 15,5 11 6 - - S 1012,8 10 -
06.07.2020 03:00:00 19,0 15,5 9 5 - - S 1013,7 10 -
06.07.2020 02:00:00 18,5 15,2 9 5 - - SW 1014,0 10 -
06.07.2020 01:00:00 20,4 15,4 15 8 - - WSW 1014,2 10 -
06.07.2020 00:00:00 19,4 16,2 11 6 - - WSW 1014,9 10 -
05.07.2020 23:00:00 20,0 16,2 15 8 - - WSW 1014,5 10 -
05.07.2020 22:00:00 21,0 15,7 11 6 - - W 1014,7 10 -
05.07.2020 21:00:00 22,9 15,5 11 6 - - W 1014,2 10 -
05.07.2020 20:00:00 24,3 15,8 18 10 - - WSW 1014,7 10 -
05.07.2020 19:00:00 24,9 15,8 26 14 - - W 1015,0 10 -
05.07.2020 18:00:00 25,0 16,7 24 13 - - WSW 1015,4 10 -
05.07.2020 17:00:00 24,0 17,0 16 9 - - WSW 1015,9 10 -
05.07.2020 16:00:00 24,2 16,7 26 14 - - WSW 1016,6 10 -
05.07.2020 15:00:00 23,7 16,2 26 14 - - W 1016,9 10 -
05.07.2020 14:00:00 23,2 15,7 28 15 52 28 W 1017,3 10 -
05.07.2020 13:00:00 23,5 15,8 26 14 - - WSW 1017,1 10 -
05.07.2020 12:00:00 21,9 15,2 28 15 - - WSW 1017,6 10 -
05.07.2020 11:00:00 23,0 15,6 22 12 - - W 1017,1 10 -
05.07.2020 10:00:00 21,7 14,8 24 13 - - WSW 1017,4 10 -
05.07.2020 09:00:00 20,7 13,9 22 12 - - SW 1017,4 10 -
05.07.2020 08:00:00 18,4 12,8 13 7 - - SSW 1017,3 10 -
05.07.2020 07:00:00 17,1 12,2 16 9 - - SW 1017,6 10 -
05.07.2020 06:00:00 16,6 12,3 11 6 - - SSW 1017,6 10 -
05.07.2020 05:00:00 16,0 12,2 13 7 - - SSW 1017,6 10 -
05.07.2020 04:00:00 16,0 12,0 9 5 - - SSW 1018,0 10 -
05.07.2020 03:00:00 16,5 11,8 8 4 - - SSW 1018,0 10 -
05.07.2020 02:00:00 17,5 11,5 9 5 - - SSW 1018,3 10 -
05.07.2020 01:00:00 17,6 11,4 9 5 - - SW 1018,7 10 -
05.07.2020 00:00:00 18,1 11,4 8 4 - - SW 1018,7 10 -
04.07.2020 23:00:00 18,8 11,1 9 5 - - SW 1018,7 10 -
04.07.2020 22:00:00 19,2 10,5 8 4 - - SW 1018,5 10 -
04.07.2020 21:00:00 20,2 10,9 11 6 - - W 1018,5 10 -
04.07.2020 20:00:00 22,1 10,9 15 8 - - W 1018,2 10 -
04.07.2020 19:00:00 23,7 11,7 18 10 - - WSW 1018,2 10 -
04.07.2020 18:00:00 23,9 11,2 21 11 - - WSW 1018,7 10 -
04.07.2020 17:00:00 23,4 11,4 15 8 - - WSW 1018,9 10 -
04.07.2020 16:00:00 23,2 11,9 24 13 - - SSW 1019,3 10 -
04.07.2020 15:00:00 22,7 11,4 22 12 - - SW 1019,4 10 -
04.07.2020 14:00:00 22,6 11,0 26 14 - - WSW 1020,1 10 -
04.07.2020 13:00:00 20,9 11,2 18 10 - - W 1020,6 10 -
04.07.2020 12:00:00 21,1 11,7 15 8 - - W 1020,8 10 -
04.07.2020 11:00:00 20,7 11,9 13 7 - - W 1021,1 10 -
04.07.2020 10:00:00 19,7 11,2 16 9 - - W 1020,9 10 -
04.07.2020 09:00:00 18,6 11,9 9 5 - - WSW 1020,9 10 -
04.07.2020 08:00:00 15,4 12,0 8 4 - - W 1021,1 10 -
04.07.2020 07:00:00 13,4 10,9 8 4 - - SSW 1021,0 10 -
04.07.2020 06:00:00 11,3 10,5 0 0 - - N 1020,8 10 -
04.07.2020 05:00:00 11,0 10,7 5 3 - - WSW 1020,8 10 -
04.07.2020 04:00:00 11,5 10,9 0 0 - - N 1020,6 10 -
04.07.2020 03:00:00 12,4 11,1 5 3 - - SW 1021,0 10 -
04.07.2020 02:00:00 12,7 11,4 0 0 - - N 1021,2 10 -
04.07.2020 01:00:00 13,7 10,5 0 0 - - N 1021,0 10 -
04.07.2020 00:00:00 14,8 10,2 5 3 - - S 1021,0 10 -
03.07.2020 23:00:00 15,9 9,6 0 0 - - N 1020,6 10 -
03.07.2020 22:00:00 18,0 8,8 0 0 - - N 1020,1 10 -
03.07.2020 21:00:00 19,5 8,5 0 0 - - N 1019,5 10 -
03.07.2020 20:00:00 20,5 8,5 11 6 - - WNW 1019,4 10 -
03.07.2020 19:00:00 20,9 8,8 11 6 - - NW 1019,3 10 -
03.07.2020 18:00:00 20,8 8,1 16 9 - - WNW 1019,3 10 -
03.07.2020 17:00:00 21,9 8,7 16 9 - - WSW 1019,3 10 -
03.07.2020 16:00:00 20,9 8,8 13 7 - - WNW 1019,3 10 -
03.07.2020 15:00:00 21,1 9,0 15 8 - - W 1019,6 10 -
03.07.2020 14:00:00 19,4 9,3 18 10 - - W 1020,0 10 -
03.07.2020 13:00:00 19,7 10,9 15 8 - - W 1019,7 10 -
03.07.2020 12:00:00 18,6 10,2 16 9 - - W 1020,0 10 -
03.07.2020 11:00:00 18,7 10,5 18 10 - - WNW 1019,7 10 -
03.07.2020 10:00:00 18,2 11,3 16 9 - - W 1019,6 10 -
03.07.2020 09:00:00 17,0 11,5 11 6 - - NW 1019,4 10 -
03.07.2020 08:00:00 15,6 12,3 13 7 - - W 1018,7 10 -
03.07.2020 07:00:00 13,1 12,5 8 4 - - W 1018,6 10 -
03.07.2020 06:00:00 12,1 11,9 8 4 - - W 1018,4 10 -
03.07.2020 05:00:00 12,9 12,7 9 5 - - W 1017,6 10 -
03.07.2020 04:00:00 13,4 12,4 13 7 - - W 1017,2 10 -
03.07.2020 03:00:00 13,7 12,3 11 6 - - W 1016,7 10 -
03.07.2020 02:00:00 14,3 12,0 11 6 - - WNW 1016,9 10 -
03.07.2020 01:00:00 15,1 11,1 5 3 - - WNW 1016,5 10 -
03.07.2020 00:00:00 15,9 11,3 8 4 - - WNW 1016,2 10 -
02.07.2020 23:00:00 16,1 11,7 11 6 - - W 1015,5 10 -

tt = Température de l'air
td = dewpoint
ff = Vitesse du vent
fx = gusts
dd = Direction du vent
ppp = reduced air pressure
vv = visibility
rr = Quantités de précipitations

stations d'obs. à proximité